Flag for Norway

Past Weather in Indre Arna, Norway — Yesterday and Last 2 Weeks

Now
54 °F

Cool.


Feels Like: 54 °F
Forecast: 54 / 47 °F
Wind: 1 mph from West

Location: Bergen / Florida

Current Time: Jul 5, 2020 at 1:47:52 pm

Latest Report: Jul 5, 2020 at 12:00 pm


Visibility: N/A

Pressure: 29.03 "Hg

Humidity: 86%

Dew Point: 50 °F

Location of Indre ArnaLocation

Past Weather in Indre Arna — Graph

°F

Indre Arna Temperature Yesterday

Maximum temperature yesterday: 66 °F (at 2:00 pm)
Minimum temperature yesterday: 43 °F (at 6:00 am)
Average temperature yesterday: 55 °F

High & Low Weather Summary for the Past Weeks

 TemperatureHumidityPressure
High85 °F (Jun 27, 3:00 pm)94% (Jun 21, 6:00 am)30.34 "Hg (Jun 21, 6:00 am)
Low43 °F (Jul 4, 6:00 am)29% (Jun 25, 7:00 pm)29.03 "Hg (Jul 5, 11:00 am)
Average62 °F66%29.81 "Hg
* Reported Jun 20 12:00 pm — Jul 5 12:00 pm, Indre Arna. Weather by CustomWeather, © 2020

Note: Actual official high and low records may vary slightly from our data, if they occured in-between our weather recording intervals... More about our weather records

Indre Arna Weather History for the Previous 24 Hours

Scroll right to see more
 ConditionsComfort  
Time TempWeatherWind HumidityBarometerVisibility
12:00 pm
Sun, Jul 5
54 °FCool.1 mph86%29.03 "HgN/A
11:00 am56 °FLight rain. Overcast.8 mph75%29.03 "Hg12 mi
10:00 am54 °FCool.5 mph82%29.12 "HgN/A
9:00 am53 °FCool.2 mph89%29.18 "HgN/A
8:00 am54 °FLight rain. Overcast.2 mph87%29.23 "Hg7 mi
7:00 am56 °FCool.2 mph76%29.26 "HgN/A
6:00 am56 °FCool.1 mph73%29.32 "HgN/A
5:00 am55 °FCool.2 mph74%29.35 "HgN/A
4:00 am54 °FCool.1 mph72%29.41 "HgN/A
3:00 am54 °FCool.2 mph69%29.44 "HgN/A
1:00 am54 °FCool.2 mph64%29.50 "HgN/A
12:00 am54 °FCool.2 mph64%29.53 "HgN/A
11:00 pm
Sat, Jul 4
55 °FOvercast.1 mph63%29.54 "Hg31 mi
10:00 pm56 °FRefreshingly cool.1 mph50%29.55 "HgN/A
9:00 pm58 °FRefreshingly cool.2 mph43%29.57 "HgN/A
8:00 pm58 °FOvercast.2 mph44%29.57 "Hg31 mi
7:00 pm58 °FRefreshingly cool.2 mph45%29.56 "HgN/A
6:00 pm59 °FRefreshingly cool.2 mph44%29.57 "HgN/A
5:00 pm62 °FOvercast.5 mph46%29.59 "Hg31 mi
4:00 pm63 °FMild.6 mph42%29.59 "HgN/A
3:00 pm64 °FMild.3 mph31%29.58 "HgN/A
2:00 pm66 °FScattered clouds.2 mph33%29.57 "Hg40 mi
1:00 pm64 °FMild.2 mph36%29.58 "HgN/A
Weather by CustomWeather, © 2020

See weather overview